Time,TemperatureF,DewpointF,PressureIn,WindDirection,WindDirectionDegrees,WindSpeedMPH,WindSpeedGustMPH,Humidity,HourlyPrecipIn,Conditions,Clouds,dailyrainin,SoftwareType,DateUTC
2013-03-25 00:02:00,26.0,11.0,29.41,North,350,0.0,0.0,53,0.00,,,0.00,,2013-03-25 08:02:00,
2013-03-25 00:11:00,26.0,11.0,29.41,North,350,0.0,0.0,53,0.00,,,0.00,,2013-03-25 08:11:00,
2013-03-25 00:22:00,26.0,12.0,29.41,NNW,344,0.0,0.0,54,0.00,,,0.00,,2013-03-25 08:22:00,
2013-03-25 00:31:00,26.0,12.0,29.41,NE,35,0.0,0.0,54,0.00,,,0.00,,2013-03-25 08:31:00,
2013-03-25 00:42:00,26.0,12.0,29.41,NE,35,0.0,0.0,54,0.00,,,0.00,,2013-03-25 08:42:00,
2013-03-25 00:52:00,26.0,11.0,29.44,NNE,21,0.0,0.0,52,0.00,,,0.00,,2013-03-25 08:52:00,
2013-03-25 01:02:00,26.0,8.0,29.44,NW,304,0.0,0.0,46,0.00,,,0.00,,2013-03-25 09:02:00,
2013-03-25 01:11:00,26.0,8.0,29.44,NW,304,0.0,0.0,46,0.00,,,0.00,,2013-03-25 09:11:00,
2013-03-25 01:22:00,26.0,8.0,29.44,West,276,0.0,0.0,45,0.00,,,0.00,,2013-03-25 09:22:00,
2013-03-25 01:32:00,26.0,8.0,29.44,West,280,0.0,0.0,45,0.00,,,0.00,,2013-03-25 09:32:00,
2013-03-25 01:42:00,26.0,8.0,29.44,West,280,0.0,0.0,45,0.00,,,0.00,,2013-03-25 09:42:00,
2013-03-25 01:52:00,25.0,7.0,29.41,West,278,0.0,0.0,45,0.00,,,0.00,,2013-03-25 09:52:00,
2013-03-25 02:02:00,25.0,7.0,29.44,West,264,0.0,0.0,45,0.00,,,0.00,,2013-03-25 10:02:00,
2013-03-25 02:12:00,25.0,7.0,29.44,West,264,0.0,0.0,45,0.00,,,0.00,,2013-03-25 10:12:00,
2013-03-25 02:22:00,25.0,7.0,29.44,WSW,243,0.0,0.0,45,0.00,,,0.00,,2013-03-25 10:22:00,
2013-03-25 02:32:00,24.0,6.0,29.44,WSW,246,0.0,0.0,45,0.00,,,0.00,,2013-03-25 10:32:00,
2013-03-25 02:42:00,24.0,6.0,29.44,WSW,246,0.0,0.0,45,0.00,,,0.00,,2013-03-25 10:42:00,
2013-03-25 02:53:00,24.0,5.0,29.44,West,270,0.0,0.0,44,0.00,,,0.00,,2013-03-25 10:53:00,
2013-03-25 03:02:00,24.0,5.0,29.44,WNW,282,0.0,0.0,43,0.00,,,0.00,,2013-03-25 11:02:00,
2013-03-25 03:12:00,24.0,3.0,29.44,West,281,0.0,0.0,40,0.00,,,0.00,,2013-03-25 11:12:00,
2013-03-25 03:22:00,24.0,3.0,29.44,West,281,0.0,0.0,40,0.00,,,0.00,,2013-03-25 11:22:00,
2013-03-25 03:31:00,23.0,3.0,29.44,West,269,0.0,0.0,42,0.00,,,0.00,,2013-03-25 11:31:00,
2013-03-25 03:42:00,23.0,3.0,29.44,West,269,0.0,0.0,42,0.00,,,0.00,,2013-03-25 11:42:00,
2013-03-25 03:52:00,22.0,3.0,29.44,West,273,0.0,0.0,43,0.00,,,0.00,,2013-03-25 11:52:00,
2013-03-25 04:02:00,23.0,2.0,29.44,West,269,0.0,0.0,40,0.00,,,0.00,,2013-03-25 12:02:00,
2013-03-25 04:11:00,23.0,2.0,29.44,West,269,0.0,0.0,40,0.00,,,0.00,,2013-03-25 12:11:00,
2013-03-25 04:22:00,22.0,1.0,29.44,West,266,0.0,0.0,40,0.00,,,0.00,,2013-03-25 12:22:00,
2013-03-25 04:31:00,23.0,2.0,29.44,WNW,291,0.0,0.0,39,0.00,,,0.00,,2013-03-25 12:31:00,
2013-03-25 04:42:00,23.0,2.0,29.44,WNW,291,0.0,0.0,39,0.00,,,0.00,,2013-03-25 12:42:00,
2013-03-25 04:53:00,22.0,1.0,29.44,WNW,289,0.0,0.0,40,0.00,,,0.00,,2013-03-25 12:53:00,
2013-03-25 05:02:00,22.0,1.0,29.47,West,266,0.0,0.0,40,0.00,,,0.00,,2013-03-25 13:02:00,
2013-03-25 05:11:00,22.0,1.0,29.47,West,266,0.0,0.0,40,0.00,,,0.00,,2013-03-25 13:11:00,
2013-03-25 05:22:00,21.0,1.0,29.47,WSW,253,0.0,0.0,40,0.00,,,0.00,,2013-03-25 13:22:00,
2013-03-25 05:31:00,21.0,2.0,29.47,WSW,251,0.0,0.0,43,0.00,,,0.00,,2013-03-25 13:31:00,
2013-03-25 05:42:00,21.0,2.0,29.47,WSW,251,0.0,0.0,43,0.00,,,0.00,,2013-03-25 13:42:00,
2013-03-25 05:52:00,21.0,3.0,29.47,SW,225,0.0,0.0,45,0.00,,,0.00,,2013-03-25 13:52:00,
2013-03-25 06:02:00,22.0,3.0,29.47,WSW,245,0.0,0.0,44,0.00,,,0.00,,2013-03-25 14:02:00,
2013-03-25 06:11:00,22.0,3.0,29.47,WSW,245,0.0,0.0,44,0.00,,,0.00,,2013-03-25 14:11:00,
2013-03-25 06:22:00,22.0,3.0,29.47,West,277,0.0,0.0,43,0.00,,,0.00,,2013-03-25 14:22:00,
2013-03-25 06:32:00,21.0,2.0,29.47,West,274,0.0,0.0,42,0.00,,,0.00,,2013-03-25 14:32:00,
2013-03-25 06:42:00,21.0,2.0,29.47,West,274,0.0,0.0,42,0.00,,,0.00,,2013-03-25 14:42:00,
2013-03-25 06:52:00,21.0,2.0,29.47,West,267,0.0,0.0,43,0.00,,,0.00,,2013-03-25 14:52:00,
2013-03-25 07:01:00,21.0,2.0,29.47,WSW,251,0.0,0.0,42,0.00,,,0.00,,2013-03-25 15:01:00,
2013-03-25 07:12:00,21.0,2.0,29.47,WSW,251,0.0,0.0,42,0.00,,,0.00,,2013-03-25 15:12:00,
2013-03-25 07:22:00,20.0,1.0,29.47,WSW,241,0.0,0.0,43,0.00,,,0.00,,2013-03-25 15:22:00,
2013-03-25 07:32:00,20.0,1.0,29.47,WSW,240,0.0,0.0,43,0.00,,,0.00,,2013-03-25 15:32:00,
2013-03-25 07:42:00,20.0,1.0,29.47,WSW,240,0.0,0.0,43,0.00,,,0.00,,2013-03-25 15:42:00,
2013-03-25 07:53:00,19.0,0.0,29.47,WSW,241,0.0,0.0,43,0.00,,,0.00,,2013-03-25 15:53:00,
2013-03-25 08:02:00,19.0,1.0,29.47,SW,229,0.0,0.0,44,0.00,,,0.00,,2013-03-25 16:02:00,
2013-03-25 08:12:00,19.0,1.0,29.47,SW,229,0.0,0.0,44,0.00,,,0.00,,2013-03-25 16:12:00,
2013-03-25 08:22:00,19.0,1.0,29.47,SW,229,0.0,0.0,44,0.00,,,0.00,,2013-03-25 16:22:00,
2013-03-25 08:32:00,18.0,-1.0,29.47,SW,223,0.0,0.0,43,0.00,,,0.00,,2013-03-25 16:32:00,
2013-03-25 08:42:00,18.0,-1.0,29.47,SW,223,0.0,0.0,43,0.00,,,0.00,,2013-03-25 16:42:00,
2013-03-25 08:52:00,18.0,-1.0,29.47,SW,227,0.0,0.0,43,0.00,,,0.00,,2013-03-25 16:52:00,
2013-03-25 09:02:00,18.0,-1.0,29.47,SW,235,0.0,0.0,43,0.00,,,0.00,,2013-03-25 17:02:00,
2013-03-25 09:11:00,18.0,-1.0,29.47,SW,235,0.0,0.0,43,0.00,,,0.00,,2013-03-25 17:11:00,
2013-03-25 09:22:00,19.0,0.0,29.47,SW,232,0.0,0.0,43,0.00,,,0.00,,2013-03-25 17:22:00,
2013-03-25 09:31:00,21.0,-1.0,29.47,SW,222,0.0,0.0,38,0.00,,,0.00,,2013-03-25 17:31:00,
2013-03-25 09:42:00,21.0,-1.0,29.47,SW,222,0.0,0.0,38,0.00,,,0.00,,2013-03-25 17:42:00,
2013-03-25 09:52:00,22.0,0.0,29.47,SW,218,0.0,0.0,38,0.00,,,0.00,,2013-03-25 17:52:00,
2013-03-25 10:02:00,23.0,-1.0,29.47,SW,216,0.0,0.0,35,0.00,,,0.00,,2013-03-25 18:02:00,
2013-03-25 10:11:00,23.0,-1.0,29.47,SW,216,0.0,0.0,35,0.00,,,0.00,,2013-03-25 18:11:00,
2013-03-25 10:22:00,25.0,1.0,29.47,SW,218,0.0,0.0,35,0.00,,,0.00,,2013-03-25 18:22:00,
2013-03-25 10:31:00,25.0,0.0,29.47,WSW,245,0.0,0.0,33,0.00,,,0.00,,2013-03-25 18:31:00,
2013-03-25 10:42:00,25.0,0.0,29.47,WSW,245,0.0,0.0,33,0.00,,,0.00,,2013-03-25 18:42:00,
2013-03-25 10:52:00,26.0,0.0,29.47,West,261,0.0,0.0,32,0.00,,,0.00,,2013-03-25 18:52:00,
2013-03-25 11:02:00,25.0,-1.0,29.50,West,265,0.0,0.0,32,0.00,,,0.00,,2013-03-25 19:02:00,
2013-03-25 11:12:00,25.0,-1.0,29.50,West,265,0.0,0.0,32,0.00,,,0.00,,2013-03-25 19:12:00,
2013-03-25 11:21:00,26.0,0.0,29.47,WSW,254,0.0,0.0,32,0.00,,,0.00,,2013-03-25 19:21:00,
2013-03-25 11:42:00,26.0,0.0,29.50,WSW,245,0.0,0.0,32,0.00,,,0.00,,2013-03-25 19:42:00,
2013-03-25 11:52:00,25.0,-1.0,29.50,WSW,251,0.0,0.0,32,0.00,,,0.00,,2013-03-25 19:52:00,
2013-03-25 12:01:00,25.0,-1.0,29.50,WSW,256,2.0,2.0,32,0.00,,,0.00,,2013-03-25 20:01:00,
2013-03-25 12:11:00,25.0,-1.0,29.50,WSW,256,2.0,2.0,32,0.00,,,0.00,,2013-03-25 20:11:00,
2013-03-25 12:21:00,25.0,-1.0,29.50,WSW,258,3.0,8.0,32,0.00,,,0.00,,2013-03-25 20:21:00,
2013-03-25 12:31:00,25.0,-1.0,29.50,West,263,2.0,0.0,32,0.00,,,0.00,,2013-03-25 20:31:00,
2013-03-25 12:42:00,25.0,-1.0,29.50,West,263,2.0,0.0,32,0.00,,,0.00,,2013-03-25 20:42:00,
2013-03-25 12:52:00,25.0,-1.0,29.50,West,261,2.0,6.0,32,0.00,,,0.00,,2013-03-25 20:52:00,
2013-03-25 13:02:00,24.0,-2.0,29.50,West,262,2.0,11.0,32,0.00,,,0.00,,2013-03-25 21:02:00,
2013-03-25 13:11:00,24.0,-2.0,29.50,West,262,2.0,11.0,32,0.00,,,0.00,,2013-03-25 21:11:00,
2013-03-25 13:21:00,25.0,-1.0,29.50,WSW,251,3.0,0.0,32,0.00,,,0.00,,2013-03-25 21:21:00,
2013-03-25 13:32:00,24.0,-2.0,29.50,WSW,246,3.0,0.0,32,0.00,,,0.00,,2013-03-25 21:32:00,
2013-03-25 13:42:00,24.0,-2.0,29.50,WSW,246,3.0,0.0,32,0.00,,,0.00,,2013-03-25 21:42:00,
2013-03-25 13:52:00,24.0,-1.0,29.50,WSW,258,3.0,0.0,33,0.00,,,0.00,,2013-03-25 21:52:00,
2013-03-25 14:02:00,24.0,-1.0,29.50,West,262,4.0,4.0,33,0.00,,,0.00,,2013-03-25 22:02:00,
2013-03-25 14:12:00,24.0,-1.0,29.50,West,262,4.0,4.0,33,0.00,,,0.00,,2013-03-25 22:12:00,
2013-03-25 14:22:00,24.0,-1.0,29.50,WSW,255,4.0,6.0,33,0.00,,,0.00,,2013-03-25 22:22:00,
2013-03-25 14:32:00,24.0,-1.0,29.50,SW,235,5.0,0.0,33,0.00,,,0.00,,2013-03-25 22:32:00,
2013-03-25 14:42:00,24.0,-1.0,29.50,SW,235,5.0,0.0,33,0.00,,,0.00,,2013-03-25 22:42:00,
2013-03-25 14:52:00,23.0,-2.0,29.50,SW,235,5.0,0.0,33,0.00,,,0.00,,2013-03-25 22:52:00,
2013-03-25 15:02:00,22.0,-2.0,29.53,WSW,252,4.0,5.0,34,0.00,,,0.00,,2013-03-25 23:02:00,
2013-03-25 15:11:00,22.0,-2.0,29.53,WSW,252,4.0,5.0,34,0.00,,,0.00,,2013-03-25 23:11:00,
2013-03-25 15:22:00,22.0,-3.0,29.53,WSW,254,4.0,0.0,33,0.00,,,0.00,,2013-03-25 23:22:00,
2013-03-25 15:31:00,21.0,-4.0,29.53,WSW,256,3.0,10.0,33,0.00,,,0.00,,2013-03-25 23:31:00,
2013-03-25 15:42:00,21.0,-4.0,29.53,WSW,256,3.0,10.0,33,0.00,,,0.00,,2013-03-25 23:42:00,
2013-03-25 15:52:00,21.0,-3.0,29.53,WSW,257,4.0,0.0,34,0.00,,,0.00,,2013-03-25 23:52:00,
2013-03-25 16:02:00,21.0,-2.0,29.53,SW,228,3.0,7.0,35,0.00,,,0.00,,2013-03-26 00:02:00,
2013-03-25 16:11:00,21.0,-2.0,29.53,SW,228,3.0,7.0,35,0.00,,,0.00,,2013-03-26 00:11:00,
2013-03-25 16:21:00,21.0,-2.0,29.56,SW,225,3.0,4.0,35,0.00,,,0.00,,2013-03-26 00:21:00,
2013-03-25 16:31:00,20.0,-3.0,29.56,SW,230,3.0,0.0,36,0.00,,,0.00,,2013-03-26 00:31:00,
2013-03-25 16:42:00,20.0,-3.0,29.56,SW,230,3.0,0.0,36,0.00,,,0.00,,2013-03-26 00:42:00,
2013-03-25 16:52:00,19.0,-3.0,29.56,SW,232,5.0,5.0,37,0.00,,,0.00,,2013-03-26 00:52:00,
2013-03-25 17:02:00,19.0,-2.0,29.56,SW,233,7.0,9.0,39,0.00,,,0.00,,2013-03-26 01:02:00,
2013-03-25 17:11:00,19.0,-2.0,29.56,SW,233,7.0,9.0,39,0.00,,,0.00,,2013-03-26 01:11:00,
2013-03-25 17:22:00,18.0,-4.0,29.56,WSW,240,6.0,6.0,36,0.00,,,0.00,,2013-03-26 01:22:00,
2013-03-25 17:32:00,18.0,-4.0,29.56,WSW,242,6.0,6.0,37,0.00,,,0.00,,2013-03-26 01:32:00,
2013-03-25 17:41:00,18.0,-4.0,29.56,WSW,242,6.0,6.0,37,0.00,,,0.00,,2013-03-26 01:41:00,
2013-03-25 17:52:00,17.0,-5.0,29.59,WSW,241,6.0,6.0,36,0.00,,,0.00,,2013-03-26 01:52:00,
2013-03-25 18:01:00,17.0,-5.0,29.59,WSW,253,6.0,8.0,36,0.00,,,0.00,,2013-03-26 02:01:00,
2013-03-25 18:11:00,17.0,-5.0,29.59,WSW,253,6.0,8.0,36,0.00,,,0.00,,2013-03-26 02:11:00,
2013-03-25 18:22:00,17.0,-5.0,29.59,West,266,6.0,6.0,36,0.00,,,0.00,,2013-03-26 02:22:00,
2013-03-25 18:31:00,17.0,-5.0,29.59,WSW,255,6.0,6.0,37,0.00,,,0.00,,2013-03-26 02:31:00,
2013-03-25 18:42:00,17.0,-5.0,29.59,WSW,255,6.0,6.0,37,0.00,,,0.00,,2013-03-26 02:42:00,
2013-03-25 18:52:00,16.0,-6.0,29.59,WSW,253,6.0,11.0,36,0.00,,,0.00,,2013-03-26 02:52:00,
2013-03-25 19:01:00,16.0,-6.0,29.59,WSW,246,7.0,7.0,37,0.00,,,0.00,,2013-03-26 03:01:00,
2013-03-25 19:11:00,16.0,-6.0,29.59,WSW,246,7.0,7.0,37,0.00,,,0.00,,2013-03-26 03:11:00,
2013-03-25 19:21:00,16.0,-6.0,29.62,WSW,242,6.0,6.0,37,0.00,,,0.00,,2013-03-26 03:21:00,
2013-03-25 19:33:00,16.0,-6.0,29.62,SW,232,6.0,11.0,37,0.00,,,0.00,,2013-03-26 03:33:00,
2013-03-25 19:42:00,16.0,-6.0,29.62,SW,232,6.0,11.0,37,0.00,,,0.00,,2013-03-26 03:42:00,
2013-03-25 19:53:00,15.0,-7.0,29.62,SW,230,6.0,0.0,37,0.00,,,0.00,,2013-03-26 03:53:00,
2013-03-25 20:03:00,15.0,-5.0,29.62,SW,222,8.0,8.0,39,0.00,,,0.00,,2013-03-26 04:03:00,
2013-03-25 20:12:00,15.0,-5.0,29.62,SW,222,8.0,8.0,39,0.00,,,0.00,,2013-03-26 04:12:00,
2013-03-25 20:22:00,14.0,-6.0,29.62,SW,223,7.0,8.0,39,0.00,,,0.00,,2013-03-26 04:22:00,
2013-03-25 20:32:00,14.0,-5.0,29.62,SW,223,8.0,12.0,41,0.00,,,0.00,,2013-03-26 04:32:00,
2013-03-25 20:42:00,14.0,-5.0,29.62,SW,223,8.0,12.0,41,0.00,,,0.00,,2013-03-26 04:42:00,
2013-03-25 20:53:00,13.0,-99.9,29.65,SW,233,7.0,8.0,-999,0.00,,,0.00,,2013-03-26 04:53:00,
2013-03-25 21:02:00,13.0,-99.9,29.65,WSW,239,7.0,12.0,-999,0.00,,,0.00,,2013-03-26 05:02:00,
2013-03-25 21:12:00,13.0,-99.9,29.65,WSW,239,7.0,12.0,-999,0.00,,,0.00,,2013-03-26 05:12:00,
2013-03-25 21:23:00,13.0,-99.9,29.65,WSW,243,7.0,7.0,-999,0.00,,,0.00,,2013-03-26 05:23:00,
2013-03-25 21:33:00,13.0,-99.9,29.65,WSW,248,6.0,8.0,-999,0.00,,,0.00,,2013-03-26 05:33:00,
2013-03-25 21:43:00,13.0,-99.9,29.65,WSW,248,6.0,8.0,-999,0.00,,,0.00,,2013-03-26 05:43:00,
2013-03-25 21:52:00,13.0,-99.9,29.65,WSW,251,6.0,0.0,-999,0.00,,,0.00,,2013-03-26 05:52:00,
2013-03-25 22:02:00,13.0,-99.9,29.68,WSW,248,6.0,0.0,-999,0.00,,,0.00,,2013-03-26 06:02:00,
2013-03-25 22:12:00,13.0,-99.9,29.68,WSW,248,6.0,0.0,-999,0.00,,,0.00,,2013-03-26 06:12:00,
2013-03-25 22:22:00,14.0,-99.9,29.68,WSW,237,6.0,7.0,-999,0.00,,,0.00,,2013-03-26 06:22:00,
2013-03-25 22:32:00,13.0,-99.9,29.68,SW,233,6.0,6.0,-999,0.00,,,0.00,,2013-03-26 06:32:00,
2013-03-25 22:43:00,13.0,-99.9,29.68,SW,233,6.0,6.0,-999,0.00,,,0.00,,2013-03-26 06:43:00,
2013-03-25 22:53:00,13.0,-99.9,29.68,SW,224,5.0,5.0,-999,0.00,,,0.00,,2013-03-26 06:53:00,
2013-03-25 23:02:00,13.0,-99.9,29.68,SSW,211,4.0,0.0,-999,0.00,,,0.00,,2013-03-26 07:02:00,
2013-03-25 23:12:00,13.0,-99.9,29.68,SSW,211,4.0,0.0,-999,0.00,,,0.00,,2013-03-26 07:12:00,
2013-03-25 23:22:00,12.0,-99.9,29.71,SSW,212,4.0,8.0,-999,0.00,,,0.00,,2013-03-26 07:22:00,
2013-03-25 23:33:00,12.0,-99.9,29.71,SSW,208,5.0,8.0,-999,0.00,,,0.00,,2013-03-26 07:33:00,
2013-03-25 23:43:00,12.0,-99.9,29.71,SSW,208,5.0,8.0,-999,0.00,,,0.00,,2013-03-26 07:43:00,
2013-03-25 23:53:00,12.0,-99.9,29.71,SSW,205,5.0,8.0,-999,0.00,,,0.00,,2013-03-26 07:53:00,